Franklin, PA

1:12 AM EDT on July 21, 2017 (GMT -0400)
Venango Regional

Weather History for KFKL - October, 2013

Change the Weather History Date:

Wednesday, October 9, 2013

  Actual Average Record
Temperature  
Mean Temperature 52 °F -  
Max Temperature 66 °F 62 °F 84 °F (1949)
Min Temperature 37 °F 41 °F 26 °F (1935)
Degree Days  
Heating Degree Days 14    
Growing Degree Days 2 (Base 50)    
Moisture  
Dew Point 38 °F    
Average Humidity 65    
Maximum Humidity 93    
Minimum Humidity 35    
Precipitation  
Precipitation 0.00 in - - ()
Sea Level Pressure  
Sea Level Pressure 30.32 in    
Wind  
Wind Speed 5 mph (East)    
Max Wind Speed 10 mph    
Max Gust Speed -    
Visibility 9 miles    
Events      
Averages and records for this station are not official NWS values.
T = Trace of Precipitation, MM = Missing Value Source: NWS Daily Summary

Daily Weather History Graph

Daily Weather History Graph

Search for Another Location

Airport or City:

Trip Planner

Search our weather history database for the weather conditions in past years. The results will help you decide how hot, cold, wet, or windy it might be!

Date:

Astronomy

Oct. 09, 2013 Rise Set
Actual Time 7:24 AM EDT 6:47 PM EDT
Civil Twilight 6:57 AM EDT 7:15 PM EDT
Nautical Twilight 6:25 AM EDT 7:47 PM EDT
Astronomical Twilight 5:53 AM EDT 8:19 PM EDT
Moon 12:21 PM EDT (10/9) 10:17 PM EDT (10/9)
Length of Visible Light 12h 18m
Length of Day
11h 22m
Waxing Crescent, 25% of the Moon is Illuminated
Oct 9
Waxing Crescent
Oct 11
First Quarter
Oct 18
Full
Oct 26
Last Quarter
Nov 3
New

Hourly Weather History & Observations

Time (EDT) Temp. Windchill Dew Point Humidity Pressure Visibility Wind Dir Wind Speed Gust Speed Precip Events Conditions
12:15 AM 46.4 °F 43.5 °F 41.0 °F 81% 30.32 in 10.0 mi NE 5.8 mph - N/A   Clear
12:35 AM 46.4 °F 43.5 °F 41.0 °F 81% 30.32 in 10.0 mi NE 5.8 mph - N/A   Clear
12:55 AM 44.6 °F 41.4 °F 41.0 °F 87% 30.32 in 10.0 mi NE 5.8 mph - N/A   Clear
1:15 AM 44.6 °F 41.4 °F 41.0 °F 87% 30.32 in 10.0 mi NE 5.8 mph - N/A   Clear
1:35 AM 44.6 °F 41.4 °F 39.2 °F 81% 30.32 in 10.0 mi ENE 5.8 mph - N/A   Clear
1:55 AM 44.6 °F 41.4 °F 39.2 °F 81% 30.32 in 10.0 mi ENE 5.8 mph - N/A   Clear
2:15 AM 44.6 °F 42.2 °F 39.2 °F 81% 30.32 in 10.0 mi East 4.6 mph - N/A   Clear
2:35 AM 44.6 °F 43.1 °F 39.2 °F 81% 30.32 in 10.0 mi East 3.5 mph - N/A   Clear
2:55 AM 42.8 °F 41.1 °F 39.2 °F 87% 30.32 in 10.0 mi NE 3.5 mph - N/A   Clear
3:15 AM 41.0 °F - 37.4 °F 87% 30.32 in 10.0 mi Calm Calm - N/A   Clear
3:35 AM 39.2 °F 37.0 °F 37.4 °F 93% 30.32 in 9.0 mi ENE 3.5 mph - N/A   Clear
3:55 AM 41.0 °F 39.0 °F 37.4 °F 87% 30.32 in 10.0 mi ENE 3.5 mph - N/A   Clear
4:15 AM 39.2 °F 35.0 °F 35.6 °F 87% 30.32 in 0.5 mi NNE 5.8 mph - N/A   Mostly Cloudy
4:35 AM 39.2 °F 37.0 °F 35.6 °F 87% 30.32 in 0.5 mi NE 3.5 mph - N/A   Mostly Cloudy
4:55 AM 39.2 °F 35.9 °F 35.6 °F 87% 30.33 in 2.5 mi NE 4.6 mph - N/A   Clear
5:15 AM 37.4 °F 33.8 °F 35.6 °F 93% 30.33 in 0.8 mi NNE 4.6 mph - N/A   Unknown
5:35 AM 37.4 °F 32.8 °F 35.6 °F 93% 30.34 in 0.2 mi NE 5.8 mph - N/A   Overcast
5:55 AM 39.2 °F 35.0 °F 35.6 °F 87% 30.33 in 2.5 mi NNE 5.8 mph - N/A   Partly Cloudy
6:15 AM 39.2 °F 35.0 °F 35.6 °F 87% 30.34 in 10.0 mi NE 5.8 mph - N/A   Clear
6:35 AM 37.4 °F 33.8 °F 35.6 °F 93% 30.34 in 10.0 mi NNE 4.6 mph - N/A   Clear
6:55 AM 37.4 °F 33.8 °F 35.6 °F 93% 30.34 in 10.0 mi NE 4.6 mph - N/A   Clear
7:15 AM 37.4 °F 33.8 °F 33.8 °F 87% 30.35 in 10.0 mi NE 4.6 mph - N/A   Clear
7:35 AM 37.4 °F 32.8 °F 33.8 °F 87% 30.35 in 10.0 mi NNE 5.8 mph - N/A   Clear
7:55 AM 37.4 °F 32.8 °F 35.6 °F 93% 30.35 in 5.0 mi NE 5.8 mph - N/A   Clear
8:15 AM 39.2 °F 35.0 °F 35.6 °F 87% 30.36 in 10.0 mi NE 5.8 mph - N/A   Clear
8:35 AM 41.0 °F 37.1 °F 37.4 °F 87% 30.36 in 10.0 mi NE 5.8 mph - N/A   Clear
8:55 AM 42.8 °F 39.3 °F 39.2 °F 87% 30.37 in 10.0 mi ENE 5.8 mph - N/A   Clear
9:15 AM 44.6 °F 41.4 °F 39.2 °F 81% 30.37 in 10.0 mi NE 5.8 mph - N/A   Clear
9:35 AM 46.4 °F 43.5 °F 39.2 °F 76% 30.37 in 10.0 mi East 5.8 mph - N/A   Clear
9:55 AM 48.2 °F - 41.0 °F 76% 30.38 in 10.0 mi East 6.9 mph - N/A   Clear
10:15 AM 51.8 °F - 42.8 °F 71% 30.39 in 10.0 mi East 9.2 mph - N/A   Clear
10:35 AM 53.6 °F - 42.8 °F 67% 30.38 in 10.0 mi East 6.9 mph - N/A   Clear
10:55 AM 55.4 °F - 42.8 °F 63% 30.38 in 10.0 mi ESE 9.2 mph - N/A   Clear
11:15 AM 57.2 °F - 42.8 °F 59% 30.38 in 10.0 mi East 10.4 mph - N/A   Clear
11:35 AM 57.2 °F - 42.8 °F 59% 30.37 in 10.0 mi East 10.4 mph - N/A   Clear
11:55 AM 60.8 °F - 42.8 °F 52% 30.37 in 10.0 mi ESE 8.1 mph - N/A   Clear
12:15 PM 60.8 °F - 42.8 °F 52% 30.37 in 10.0 mi ESE 8.1 mph - N/A   Clear
12:35 PM 60.8 °F - 41.0 °F 48% 30.37 in 10.0 mi East 6.9 mph - N/A   Clear
12:55 PM 62.6 °F - 39.2 °F 42% 30.35 in 10.0 mi SE 3.5 mph - N/A   Clear
1:15 PM 62.6 °F - 39.2 °F 42% 30.35 in 10.0 mi East 6.9 mph - N/A   Clear
1:35 PM 62.6 °F - 39.2 °F 42% 30.34 in 10.0 mi East 6.9 mph - N/A   Clear
1:55 PM 64.4 °F - 39.2 °F 40% 30.33 in 10.0 mi ENE 6.9 mph - N/A   Clear
2:15 PM 64.4 °F - 37.4 °F 37% 30.32 in 10.0 mi East 4.6 mph - N/A   Clear
2:35 PM 64.4 °F - 37.4 °F 37% 30.31 in 10.0 mi ESE 8.1 mph - N/A   Clear
2:55 PM 66.2 °F - 37.4 °F 35% 30.31 in 10.0 mi East 8.1 mph - N/A   Clear
3:15 PM 66.2 °F - 39.2 °F 37% 30.31 in 10.0 mi ESE 9.2 mph - N/A   Clear
3:35 PM 66.2 °F - 39.2 °F 37% 30.30 in 10.0 mi East 6.9 mph - N/A   Clear
3:55 PM 66.2 °F - 39.2 °F 37% 30.30 in 10.0 mi SE 9.2 mph - N/A   Clear
4:15 PM 66.2 °F - 39.2 °F 37% 30.30 in 10.0 mi ESE 9.2 mph - N/A   Clear
4:35 PM 66.2 °F - 39.2 °F 37% 30.30 in 10.0 mi SE 9.2 mph - N/A   Clear
4:55 PM 64.4 °F - 37.4 °F 37% 30.30 in 10.0 mi SE 8.1 mph - N/A   Clear
5:15 PM 64.4 °F - 37.4 °F 37% 30.29 in 10.0 mi SE 6.9 mph - N/A   Clear
5:35 PM 64.4 °F - 37.4 °F 37% 30.29 in 10.0 mi East 5.8 mph - N/A   Clear
5:55 PM 64.4 °F - 39.2 °F 40% 30.30 in 10.0 mi ESE 6.9 mph - N/A   Clear
6:15 PM 62.6 °F - 39.2 °F 42% 30.29 in 10.0 mi East 5.8 mph - N/A   Clear
6:35 PM 60.8 °F - 39.2 °F 45% 30.29 in 10.0 mi ESE 4.6 mph - N/A   Clear
6:55 PM 59.0 °F - 39.2 °F 48% 30.29 in 10.0 mi ESE 3.5 mph - N/A   Clear
7:15 PM 57.2 °F - 37.4 °F 48% 30.29 in 10.0 mi ESE 4.6 mph - N/A   Clear
7:35 PM 55.4 °F - 37.4 °F 51% 30.29 in 10.0 mi East 4.6 mph - N/A   Clear
7:55 PM 55.4 °F - 37.4 °F 51% 30.29 in 10.0 mi East 4.6 mph - N/A   Clear
8:15 PM 57.2 °F - 37.4 °F 48% 30.29 in 10.0 mi East 4.6 mph - N/A   Clear
8:35 PM 55.4 °F - 37.4 °F 51% 30.29 in 10.0 mi Calm Calm - N/A   Clear
8:55 PM 53.6 °F - 37.4 °F 54% 30.29 in 10.0 mi Calm Calm - N/A   Clear
9:15 PM 53.6 °F - 37.4 °F 54% 30.29 in 10.0 mi ESE 3.5 mph - N/A   Clear
9:35 PM 53.6 °F - 37.4 °F 54% 30.29 in 10.0 mi ESE 4.6 mph - N/A   Clear
9:55 PM 53.6 °F - 35.6 °F 51% 30.29 in 10.0 mi East 3.5 mph - N/A   Clear
10:15 PM 51.8 °F - 37.4 °F 58% 30.29 in 10.0 mi Calm Calm - N/A   Clear
10:35 PM 50.0 °F - 37.4 °F 62% 30.29 in 10.0 mi Calm Calm - N/A   Clear
10:55 PM 48.2 °F - 37.4 °F 66% 30.30 in 10.0 mi Calm Calm - N/A   Clear
11:15 PM 48.2 °F - 37.4 °F 66% 30.29 in 10.0 mi Calm Calm - N/A   Clear
11:35 PM 44.6 °F 43.1 °F 39.2 °F 81% 30.29 in 10.0 mi ENE 3.5 mph - N/A   Clear
11:55 PM 46.4 °F - 39.2 °F 76% 30.29 in 10.0 mi Calm Calm - N/A   Clear